7 * 24
多渠道服务支持
STARLINK-37029(NORAD编号68271)是美国SpaceX公司星链(Starlink)卫星互联网星座的一员,部署于近地轨道,属于星链大规模组网计划的组成部分。 作为低轨通信卫星,它延续了星链卫星的典型设计:采用紧凑型平板结构,搭载Ku/Ka/E频段相控阵天线与星间激光链路,配合氩气离子推进系统实现轨道机动与离轨处置,通过低轨道部署提供低时延、高带宽的全球互联网接入服务,支持偏远地区通信、应急连接等场景,目前处于在轨运行状态。
美国
(US)
| 数据来源 | 国际轨道数据 |
| 星历时间: | 2026-07-27T20:37:24+0800 12小时前 查看轨道信息 |
| 半长轴: | 6840.806km |
| 偏心率: | 0.0002234 |
| 轨道倾角: | 53.158° |
| 近地点辐角 | 121.158° |
| 升交点赤经 | 26.677° |
| 平近点角 | 238.964° |
| 近地点: | 461.14km |
| 远地点: | 464.198km |
| 周期: | 93.847分钟 |
| 每日圈数: | 15.344118 |